Terminal Aerodrome Forecast
Issued by NWS

Home | Current Version | Previous Version | Text Only | Print | Product List | Glossary On
Versions: 1 2 3 4 5 6 7 8 9 10 11 12 13 14 15 16 17 18 19 20 21 22 23 24 25
809
FTUS41 KRLX 281736
TAFCKB
TAF
KCKB 281736Z 2818/2918 VRB06KT P6SM FEW024
     FM282000 22007KT P6SM VCSH BKN035
     FM282100 22008KT P6SM VCTS BKN045CB
      TEMPO 2821/2822 2SM TSRA OVC025CB
     FM282300 21006KT P6SM BKN060
     FM290600 22005KT 5SM SHRA OVC015
     FM290800 24006KT P6SM OVC010
     FM290900 25007KT P6SM OVC008
     FM291400 26007KT P6SM SCT025
     FM291700 26008KT P6SM SCT250=

USA.gov is the U.S. government's official web portal to all federal, state and local government web resources and services.